Location: Launay
(47.2429°N, 1.5727°E)
Time: 22:10:29
(UTC+00:00)

Cosmos 192 - Pass Details

Date: 19 May 2025
Orbit: 695 x 708 km, 74.0° (Epoch: 12 June)

Event Time Altitude Azimuth Distance (km) Brightness Sun altitude
Rises 21:46:31 0° 336° (NNW) 3,115 9.4 -17.2°
Reaches altitude 10° 21:48:51 10° 336° (NNW) 2,192 8.2 -17.4°
Maximum altitude 21:53:48 79° 250° (WSW) 727 4.3 -17.9°
Enters shadow 21:56:00 33° 168° (SSE) 1,172 4.9 -18.0°
